Airfield :
LOGIN :

Register | Disclaimer

   EN    FR    IT 

 










Legend :    VFR   Marginal VFR   IFR   Intensive IFR   Very Intensive IFR
Visi :
Ceiling :
>= 8 km
>= 3000ft
5 to 8 km
1000 to 3000 ft
1500m to 5 km
500 to 1000 ft
800 to 1500m
200 to 500 ft
< 800m
< 200 ft
Symbols :   Thunderstorms  Fog  Heavy snow  Heavy precipitations  Wind > 20 kt
SIGMETs :     Misc.  Thunderstorms  Icing  Turbulence  Mountain Waves  Volcanic Ashes







- Airport Elevation : 909 ft
- IATA code : KSF


EDVK - Kassel Calden

EXPIRED METARs :
  • 241420Z 24010KT 9999 BKN045 21/13 Q1014
  • 241350Z 22009KT 190V260 9999 BKN046 21/13 Q1014
  • 241320Z 22009KT 9999 BKN045 21/12 Q1015
  • 241250Z 23011KT 9999 BKN044 20/12 Q1015
  • 241220Z 23010KT 200V270 9999 OVC045 20/12 Q1015
  • 241150Z 23011KT 9999 BKN047 21/12 Q1015

Expired Forecast.
No reported NOTAMs for that airfield.



MET'MAP, your aeronautical weather chart ! - Copyright ORBIFLY December 2007 - Disclaimer

ORBIFLY MET'MAP TEAM :

Programming & Development : Alexandra Zaïnal
Concept & Development : Baudouin d'Aumeries
Co-Development & Prog : Marc-Olivier Méhu
Technical & hardware support : Manuel Goepfert

Contact : metmap@orbifly.com




SOURCES & CREDITS :

   NOAA